KC0AFB Weather Reports


time (UTC)temp
F
wind
direction
speed
knots
gust
knots
rain 1hr
in
rain 24hr
in
rain mn
in
humidity
%
barometer
mb
20260831053650 57 239 2.6 2.6 0.00 0.00 0.00 90 1011.3
20260831053149 57 276 2.6 2.6 0.00 0.00 0.00 90 1011.2
20260831052648 57 223 2.6 2.6 0.00 0.00 0.00 90 1011.1
20260831052147 57 258 1.7 1.7 0.00 0.00 0.00 90 1011.1
20260831051645 57 241 3.5 5.2 0.00 0.00 0.00 90 1010.9
20260831051144 57 259 2.6 2.6 0.00 0.00 0.00 91 1010.9
20260831050639 57 199 2.6 2.6 0.00 0.00 0.00 91 1010.7
20260831050133 57 251 2.6 2.6 0.00 0.00 0.00 91 1010.7
20260831045633 57 288 1.7 1.7 0.00 1.07 1.07 91 1010.6
20260831045128 57 295 1.7 1.7 0.00 1.07 1.07 91 1010.6
20260831044623 57 285 2.6 2.6 0.00 1.07 1.07 91 1010.6
20260831044118 57 189 0.9 1.7 0.00 1.07 1.07 91 1010.6
20260831043613 57 213 0.9 0.9 0.00 1.07 1.07 91 1010.4
20260831043103 58 145 0.0 0.9 0.00 1.07 1.07 91 1010.6
20260831042602 58 256 0.9 0.9 0.00 1.07 1.07 91 1010.5
20260831042057 58 176 0.9 0.9 0.00 1.07 1.07 91 1010.3
20260831041552 58 191 0.9 0.9 0.00 1.07 1.07 90 1010.4
20260831041051 59 257 1.7 1.7 0.00 1.07 1.07 90 1010.4
20260831040546 59 235 1.7 1.7 0.00 1.07 1.07 90 1010.4
20260831040045 59 317 0.0 0.0 0.00 1.07 1.07 89 1010.2
20260831035543 59 316 0.9 0.9 0.00 1.07 1.07 89 1010.3
20260831035039 59 267 0.9 1.7 0.00 1.07 1.07 89 1010.4
20260831034533 60 294 0.9 0.9 0.00 1.07 1.07 88 1010.4
20260831034028 60 295 1.7 1.7 0.00 1.07 1.07 88 1010.3
20260831033524 60 290 0.9 1.7 0.00 1.07 1.07 88 1010.6
20260831033019 61 194 0.9 1.7 0.00 1.07 1.07 87 1010.8
20260831032518 61 240 2.6 2.6 0.00 1.07 1.07 87 1010.7
20260831032014 61 228 3.5 4.3 0.00 1.07 1.07 87 1010.9
20260831031514 61 219 2.6 2.6 0.00 1.07 1.07 87 1010.6
20260831031013 62 227 2.6 2.6 0.00 1.07 1.07 85 1010.4
20260831030512 62 286 3.5 4.3 0.00 1.07 1.07 83 1009.9
20260831030011 62 297 4.3 5.2 0.00 1.07 1.07 83 1009.9
20260831025504 61 340 1.7 1.7 0.00 1.07 1.07 86 1010.0
20260831024959 61 166 0.0 0.0 0.00 1.07 1.07 86 1009.7
20260831024454 61 283 0.9 0.9 0.00 1.07 1.07 85 1009.8
20260831023948 61 53 0.0 0.9 0.00 1.07 1.07 85 1010.0
20260831023446 62 42 0.9 0.9 0.00 1.07 1.07 84 1009.6
20260831022942 62 39 0.9 1.7 0.00 1.07 1.07 82 1009.6
20260831022440 62 25 2.6 2.6 0.00 1.07 1.07 83 1009.8
20260831021935 62 38 1.7 2.6 0.00 1.07 1.07 82 1009.7
20260831021435 62 320 3.5 4.3 0.00 1.07 1.07 81 1009.7
20260831020931 62 311 3.5 4.3 0.00 1.07 1.07 83 1009.9
20260831020430 62 359 4.3 6.1 0.00 1.07 1.07 83 1009.3
20260831015925 61 322 4.3 6.1 0.00 1.07 1.07 84 1009.5
20260831015421 61 279 7.8 9.6 0.00 1.07 1.07 85 1010.0
20260831014917 61 261 7.8 12.2 0.00 1.07 1.07 85 1010.0
20260831014416 62 317 9.6 13.0 0.00 1.07 1.07 85 1010.2
20260831013912 61 0 9.6 13.9 0.00 1.07 1.07 88 1010.2
20260831013408 61 308 7.8 9.6 0.00 1.07 1.07 89 1010.3
20260831012902 62 317 9.6 13.9 0.00 1.07 1.07 90 1010.3
20260831012357 62 273 9.6 13.0 0.05 1.07 1.07 90 1010.2
20260831011852 62 299 13.0 14.8 0.05 1.07 1.07 91 1010.1
20260831011346 62 308 7.8 9.6 0.00 1.06 1.06 92 1009.9
20260831010837 62 295 9.6 11.3 0.14 1.06 1.06 93 1010.3
20260831010336 62 300 8.7 12.2 0.19 1.06 1.06 93 1010.6
20260831005832 62 297 10.4 13.9 0.24 1.04 1.04 94 1010.2
20260831005328 63 286 13.0 14.8 0.47 1.03 1.03 94 1010.2
20260831004827 64 274 7.8 9.6 1.84 1.00 1.00 93 1010.5
20260831004324 64 288 9.6 12.2 3.00 0.96 0.96 93 1010.4
20260831003819 65 285 17.4 21.7 1.79 0.74 0.74 92 1010.1
20260831003316 68 256 11.3 20.0 0.00 0.44 0.44 84 1010.0
20260831002815 70 265 8.7 11.3 0.00 0.44 0.44 81 1009.5
20260831002308 75 247 7.0 8.7 0.00 0.44 0.44 83 1008.9
20260831001804 75 170 5.2 6.1 0.00 0.44 0.44 84 1007.2
20260831001259 75 142 3.5 4.3 0.00 0.44 0.44 84 1006.8
20260831000757 76 122 2.6 4.3 0.00 0.44 0.44 83 1006.7
20260831000257 76 115 5.2 6.1 0.00 0.44 0.44 83 1006.6
20260830235755 76 125 6.1 7.8 0.00 0.44 0.44 82 1006.4
20260830235250 77 122 7.0 7.8 0.00 0.44 0.44 82 1006.5
20260830234745 77 97 7.0 8.7 0.00 0.44 0.44 81 1006.2
20260830234241 77 153 6.1 7.0 0.00 0.44 0.44 81 1006.2
20260830233737 77 143 7.0 8.7 0.00 0.44 0.44 81 1006.3
20260830233232 77 91 3.5 4.3 0.00 0.44 0.44 80 1006.5
20260830232727 77 108 3.5 5.2 0.00 0.44 0.44 80 1006.6
20260830232223 78 131 6.1 7.0 0.00 0.44 0.44 79 1006.6
20260830231720 78 114 4.3 7.0 0.00 0.44 0.44 79 1006.7
20260830231219 78 98 6.1 7.0 0.00 0.44 0.44 79 1006.6
20260830230714 78 81 4.3 6.1 0.00 0.44 0.44 79 1006.4
20260830230209 78 85 7.8 8.7 0.00 0.44 0.44 78 1006.5
20260830225703 78 127 4.3 5.2 0.00 0.44 0.44 78 1006.4
20260830225158 78 93 5.2 6.1 0.00 0.44 0.44 77 1006.3
20260830224657 79 135 4.3 6.1 0.00 0.44 0.44 77 1006.2
20260830224153 80 100 7.8 9.6 0.00 0.44 0.44 76 1006.2
20260830223649 79 78 6.1 8.7 0.00 0.44 0.44 77 1006.2
20260830223144 80 106 6.1 7.8 0.00 0.44 0.44 77 1006.5
20260830222639 79 80 5.2 7.8 0.00 0.44 0.44 76 1006.5
20260830222134 79 109 6.1 7.0 0.00 0.44 0.44 77 1006.5
20260830221629 80 140 5.2 6.1 0.00 0.44 0.44 76 1006.7
20260830221120 79 94 7.8 8.7 0.00 0.44 0.44 76 1006.6
20260830220615 79 102 9.6 12.2 0.00 0.44 0.44 77 1006.4
20260830220108 80 109 8.7 11.3 0.00 0.44 0.44 76 1006.6
20260830215607 80 106 6.1 8.7 0.00 0.44 0.44 75 1006.4
20260830215101 80 99 6.1 7.8 0.00 0.44 0.44 76 1006.4
20260830214556 79 73 6.1 7.8 0.00 0.44 0.44 77 1006.5
20260830214051 80 130 4.3 6.1 0.00 0.44 0.44 76 1006.8
20260830213545 81 82 6.1 7.0 0.00 0.44 0.44 74 1006.5
20260830213041 80 75 4.3 5.2 0.00 0.44 0.44 75 1006.9
20260830212537 81 60 6.1 7.8 0.00 0.44 0.44 74 1006.7
20260830212032 80 105 6.1 7.0 0.00 0.44 0.44 76 1006.8
20260830211526 81 83 7.0 7.8 0.00 0.44 0.44 76 1007.4
20260830211020 80 82 3.5 6.1 0.00 0.44 0.44 77 1007.5
20260830210515 80 102 6.1 7.0 0.00 0.44 0.44 78 1007.5
20260830210014 80 70 6.1 7.0 0.00 0.44 0.44 78 1007.8
20260830205507 80 101 4.3 5.2 0.00 0.44 0.44 78 1007.8
20260830205003 79 137 3.5 5.2 0.00 0.44 0.44 79 1007.5
20260830204501 79 102 4.3 6.1 0.00 0.44 0.44 79 1007.8
20260830203956 79 63 2.6 2.6 0.00 0.44 0.44 79 1008.1
20260830203452 79 78 5.2 6.1 0.00 0.44 0.44 79 1007.8
20260830202951 80 68 4.3 5.2 0.00 0.44 0.44 77 1007.9
20260830202446 80 55 6.1 7.0 0.00 0.44 0.44 77 1007.7
20260830201943 79 63 4.3 5.2 0.00 0.44 0.44 77 1007.9
20260830201441 79 48 3.5 5.2 0.00 0.44 0.44 79 1007.8
20260830200937 79 67 6.1 7.8 0.00 0.44 0.44 77 1007.8
20260830200437 80 84 4.3 6.1 0.00 0.44 0.44 79 1007.8
20260830195932 79 110 4.3 5.2 0.00 0.44 0.44 76 1008.1
20260830195427 79 58 4.3 6.1 0.00 0.44 0.44 76 1008.0
20260830194925 78 64 4.3 5.2 0.00 0.44 0.44 78 1007.7
20260830194424 78 85 5.2 7.0 0.00 0.44 0.44 78 1008.1
20260830193924 78 74 4.3 6.1 0.00 0.44 0.44 78 1007.9
20260830193423 79 116 5.2 6.1 0.00 0.44 0.44 76 1008.0
20260830192919 78 93 3.5 4.3 0.00 0.44 0.44 79 1008.2
20260830192414 78 126 6.1 7.0 0.00 0.44 0.44 78 1008.0
20260830191909 78 100 3.5 4.3 0.00 0.44 0.44 78 1008.1
20260830191408 77 68 4.3 5.2 0.00 0.44 0.44 80 1008.2
20260830190904 78 111 6.1 7.0 0.00 0.44 0.44 79 1008.3
20260830190359 78 84 3.5 4.3 0.00 0.44 0.44 80 1008.4
20260830185858 77 71 3.5 5.2 0.00 0.44 0.44 81 1008.3
20260830185353 77 54 4.3 7.0 0.00 0.44 0.44 82 1008.2
20260830184848 77 79 7.0 7.8 0.00 0.44 0.44 82 1008.4
20260830184347 76 86 2.6 2.6 0.00 0.44 0.44 83 1008.5
20260830183842 76 76 3.5 6.1 0.00 0.44 0.44 84 1008.7
20260830183336 76 62 3.5 4.3 0.00 0.44 0.44 84 1008.6
20260830182827 76 58 5.2 6.1 0.00 0.44 0.44 84 1008.7
20260830182322 76 61 4.3 5.2 0.00 0.44 0.44 84 1008.9
20260830181818 75 86 7.0 7.8 0.00 0.44 0.44 84 1008.9
20260830181314 75 60 5.2 6.1 0.00 0.44 0.44 84 1009.0
20260830180813 75 77 5.2 7.0 0.00 0.44 0.44 85 1009.0
20260830180307 75 63 4.3 5.2 0.00 0.44 0.44 86 1009.2
20260830175802 74 142 4.3 5.2 0.00 0.44 0.44 87 1009.3
20260830175257 74 131 5.2 6.1 0.00 0.44 0.44 87 1009.3
20260830174756 74 101 4.3 6.1 0.00 0.44 0.44 87 1009.4
20260830174252 74 127 4.3 5.2 0.00 0.44 0.44 88 1009.4
20260830173751 74 79 2.6 2.6 0.00 0.44 0.44 87 1009.5
20260830173247 73 132 5.2 7.0 0.00 0.44 0.44 87 1009.8
20260830172743 73 81 3.5 5.2 0.00 0.44 0.44 88 1009.4
20260830172240 73 104 5.2 6.1 0.00 0.44 0.44 88 1009.7
20260830171735 73 54 4.3 6.1 0.00 0.44 0.44 89 1009.6
20260830171230 73 115 5.2 6.1 0.00 0.44 0.44 89 1009.5
20260830170725 73 109 6.1 7.0 0.00 0.44 0.44 88 1009.6
20260830170224 73 142 3.5 5.2 0.00 0.44 0.44 89 1009.3
20260830165723 73 135 5.2 7.0 0.00 0.44 0.44 88 1009.3
20260830165219 73 153 5.2 7.0 0.00 0.44 0.44 89 1009.4
20260830164715 72 89 6.1 7.0 0.00 0.44 0.44 89 1009.2
20260830164211 72 80 5.2 6.1 0.00 0.44 0.44 90 1009.2
20260830163708 72 91 7.0 7.8 0.00 0.44 0.44 90 1009.6
20260830163203 72 141 4.3 5.2 0.00 0.44 0.44 90 1009.3
20260830162657 72 93 4.3 6.1 0.00 0.44 0.44 91 1009.2
20260830162153 72 137 6.1 7.0 0.00 0.44 0.44 91 1009.2
20260830161648 71 83 3.5 5.2 0.00 0.44 0.44 92 1009.4
20260830161143 71 59 4.3 5.2 0.00 0.44 0.44 92 1009.0
20260830160640 71 69 3.5 4.3 0.00 0.44 0.44 92 1009.0
20260830160139 71 64 5.2 6.1 0.00 0.44 0.44 92 1009.0
20260830155636 70 113 3.5 4.3 0.00 0.44 0.44 93 1009.7
20260830155131 70 61 2.6 4.3 0.00 0.44 0.44 93 1009.5
20260830154626 70 118 2.6 2.6 0.00 0.44 0.44 93 1009.3
20260830154122 70 91 2.6 2.6 0.00 0.44 0.44 93 1009.5
20260830153618 69 109 3.5 4.3 0.00 0.44 0.44 94 1009.5
20260830153118 69 122 2.6 4.3 0.00 0.44 0.44 94 1009.3
20260830152618 69 84 1.7 1.7 0.00 0.44 0.44 94 1009.6
20260830152117 69 137 4.3 6.1 0.00 0.44 0.44 94 1009.4
20260830151612 69 98 4.3 5.2 0.00 0.44 0.44 94 1009.5
20260830151107 69 125 4.3 5.2 0.00 0.44 0.44 94 1009.4
20260830150606 69 124 2.6 2.6 0.00 0.44 0.44 94 1009.6
20260830150101 69 124 2.6 2.6 0.00 0.44 0.44 94 1009.5
20260830145601 69 143 5.2 7.0 0.00 0.44 0.44 94 1009.2
20260830145056 69 110 5.2 5.2 0.00 0.44 0.44 94 1009.0
20260830144552 69 95 5.2 7.0 0.00 0.44 0.44 94 1009.2
20260830144048 68 112 2.6 4.3 0.00 0.44 0.44 94 1009.0
20260830143543 68 96 5.2 6.1 0.00 0.44 0.44 94 1009.2
20260830143041 68 90 5.2 6.1 0.00 0.44 0.44 94 1009.3
20260830142537 68 113 6.1 7.8 0.00 0.44 0.44 94 1009.2
20260830142032 68 85 4.3 4.3 0.00 0.44 0.44 94 1009.4
20260830141527 68 132 4.3 5.2 0.00 0.44 0.44 94 1009.3
20260830141022 68 120 4.3 6.1 0.00 0.44 0.44 94 1009.5
20260830140521 68 115 6.1 6.1 0.00 0.44 0.44 94 1009.4
20260830140018 68 99 5.2 6.1 0.00 0.44 0.44 94 1009.4
20260830135512 68 113 4.3 7.0 0.00 0.44 0.44 94 1009.4
20260830135007 68 103 3.5 4.3 0.00 0.44 0.44 94 1009.5
20260830134503 68 100 6.1 6.1 0.00 0.44 0.44 94 1009.6
20260830133958 68 93 5.2 7.0 0.00 0.44 0.44 94 1009.3
20260830133454 68 100 5.2 6.1 0.00 0.44 0.44 94 1009.4
20260830132949 68 74 6.1 7.8 0.00 0.44 0.44 94 1009.2
20260830132445 68 65 7.0 9.6 0.00 0.44 0.44 94 1009.3
20260830131944 68 75 6.1 7.0 0.00 0.44 0.44 94 1009.5
20260830131443 68 76 3.5 6.1 0.00 0.44 0.44 95 1009.4
20260830130938 68 89 4.3 5.2 0.00 0.44 0.44 95 1009.7
20260830130434 67 85 3.5 5.2 0.00 0.44 0.44 95 1009.5
20260830125932 67 75 2.6 2.6 0.00 0.44 0.44 95 1009.6
20260830125428 67 73 3.5 4.3 0.00 0.44 0.44 95 1009.6
20260830124926 67 85 2.6 4.3 0.00 0.44 0.44 95 1009.4
20260830124421 67 76 4.3 5.2 0.00 0.44 0.44 95 1009.4
20260830123918 67 48 6.1 7.0 0.00 0.44 0.44 95 1009.6
20260830123414 67 62 2.6 2.6 0.00 0.44 0.44 95 1009.6
20260830122912 67 60 3.5 4.3 0.00 0.44 0.44 95 1009.6
20260830122407 67 44 2.6 2.6 0.00 0.44 0.44 95 1009.6
20260830121906 67 71 3.5 4.3 0.00 0.44 0.44 95 1009.2
20260830121402 67 53 4.3 7.0 0.00 0.44 0.44 95 1009.2
20260830120856 67 58 3.5 4.3 0.00 0.44 0.44 95 1009.2
20260830120352 67 65 5.2 6.1 0.00 0.44 0.44 95 1009.3
20260830115848 67 61 4.3 5.2 0.00 0.44 0.44 95 1009.0
20260830115344 67 54 4.3 6.1 0.00 0.44 0.44 95 1009.0
20260830114839 67 41 3.5 6.1 0.00 0.44 0.44 95 1009.2
20260830114336 67 68 3.5 5.2 0.00 0.44 0.44 95 1009.2
20260830113831 67 48 4.3 6.1 0.00 0.44 0.44 95 1009.3
20260830113326 67 56 4.3 6.1 0.00 0.44 0.44 95 1009.4
20260830112822 67 68 2.6 2.6 0.00 0.44 0.44 95 1009.2
20260830112317 67 72 3.5 5.2 0.00 0.44 0.44 95 1009.3
20260830111813 67 56 4.3 6.1 0.00 0.44 0.44 95 1008.9
20260830111309 67 84 2.6 4.3 0.00 0.44 0.44 95 1008.8
20260830110808 67 67 2.6 2.6 0.00 0.44 0.44 95 1008.8
20260830110305 67 89 2.6 4.3 0.00 0.44 0.44 95 1008.9
20260830105804 67 64 2.6 2.6 0.00 0.44 0.44 95 1008.7
20260830105300 67 38 2.6 2.6 0.00 0.44 0.44 95 1008.4
20260830104756 67 65 2.6 4.3 0.00 0.44 0.44 95 1008.4
20260830104253 67 63 2.6 4.3 0.00 0.44 0.44 95 1008.4
20260830103751 68 60 4.3 5.2 0.00 0.44 0.44 95 1008.3
20260830103247 68 66 2.6 4.3 0.00 0.44 0.44 95 1008.4
20260830102739 68 72 3.5 4.3 0.00 0.44 0.44 95 1008.4
20260830102236 68 62 4.3 5.2 0.00 0.44 0.44 95 1008.4
20260830101731 68 72 7.0 8.7 0.00 0.44 0.44 95 1008.2
20260830101226 68 71 3.5 4.3 0.00 0.44 0.44 95 1008.4
20260830100721 69 65 2.6 2.6 0.00 0.44 0.44 95 1008.2
20260830100220 69 64 3.5 4.3 0.00 0.44 0.44 95 1008.3
20260830095719 69 63 3.5 4.3 0.00 0.44 0.44 95 1008.3
20260830095216 69 73 3.5 4.3 0.00 0.44 0.44 95 1008.3
20260830094711 69 57 2.6 2.6 0.00 0.44 0.44 95 1008.4
20260830094207 69 52 1.7 1.7 0.00 0.44 0.44 95 1008.3
20260830093702 69 67 1.7 1.7 0.00 0.44 0.44 95 1008.3
20260830093158 69 35 2.6 2.6 0.00 0.44 0.44 95 1008.1
20260830092658 69 32 3.5 4.3 0.00 0.44 0.44 95 1008.3
20260830092155 69 34 1.7 1.7 0.00 0.44 0.44 95 1008.2
20260830091650 69 45 0.9 1.7 0.00 0.44 0.44 95 1008.4
20260830091149 69 69 0.0 0.0 0.00 0.44 0.44 95 1008.3
20260830090644 70 74 0.0 0.0 0.00 0.44 0.44 95 1008.0
20260830090139 70 73 0.9 1.7 0.00 0.44 0.44 95 1008.0
20260830085638 70 81 0.9 0.9 0.00 0.44 0.44 95 1008.2
20260830085135 70 54 1.7 1.7 0.00 0.44 0.44 95 1008.6
20260830084630 70 54 0.9 1.7 0.00 0.44 0.44 95 1008.9
20260830084125 70 37 3.5 4.3 0.00 0.44 0.44 95 1008.7
20260830083620 70 49 2.6 2.6 0.07 0.44 0.44 95 1009.2
20260830083120 70 58 2.6 2.6 0.07 0.44 0.44 95 1008.9
20260830082615 70 66 2.6 4.3 0.05 0.43 0.43 95 1009.2
20260830082111 70 95 1.7 1.7 0.05 0.43 0.43 95 1009.0
20260830081607 70 143 1.7 1.7 0.07 0.42 0.42 95 1008.7
20260830081105 70 125 1.7 1.7 0.24 0.42 0.42 95 1008.9
20260830080600 70 126 4.3 6.1 0.28 0.41 0.41 95 1009.0
20260830080055 70 140 1.7 2.6 0.66 0.39 0.39 95 1008.9
20260830075551 70 131 4.3 5.2 1.63 0.36 0.36 94 1008.8
20260830075051 70 172 2.6 4.3 1.32 0.27 0.27 94 1009.2
20260830074547 70 143 5.2 6.1 0.61 0.10 0.10 94 1009.6
20260830074042 70 157 4.3 5.2 0.31 0.05 0.05 93 1009.7
20260830073538 70 130 1.7 1.7 0.00 0.00 0.00 93 1009.8
20260830073033 71 137 2.6 2.6 0.00 0.00 0.00 93 1010.0
20260830072528 71 93 4.3 5.2 0.00 0.00 0.00 92 1009.5
20260830072023 71 86 5.2 7.0 0.00 0.00 0.00 92 1009.4
20260830071519 71 118 4.3 5.2 0.00 0.00 0.00 92 1009.5
20260830071016 71 94 6.1 7.0 0.00 0.00 0.00 92 1009.6
20260830070511 71 80 4.3 5.2 0.00 0.00 0.00 92 1009.7
20260830070011 71 98 5.2 6.1 0.00 0.00 0.00 92 1009.7
20260830065510 71 89 6.1 7.0 0.00 0.00 0.00 92 1009.6
20260830065009 71 87 7.0 7.8 0.00 0.00 0.00 92 1009.4
20260830064504 71 99 6.1 7.0 0.00 0.00 0.00 92 1009.4
20260830063959 71 99 5.2 7.0 0.00 0.00 0.00 92 1009.2
20260830063458 71 82 6.1 7.8 0.00 0.00 0.00 92 1009.2
20260830062957 71 63 6.1 7.0 0.00 0.00 0.00 92 1009.5
20260830062457 71 55 6.1 7.0 0.00 0.00 0.00 92 1009.4
20260830061952 71 77 5.2 6.1 0.00 0.00 0.00 92 1009.4
20260830061447 71 87 4.3 6.1 0.00 0.00 0.00 92 1009.3
20260830060943 71 122 4.3 6.1 0.00 0.00 0.00 92 1009.2
20260830060434 71 83 7.0 7.8 0.00 0.00 0.00 92 1008.9
20260830055929 71 89 6.1 7.8 0.00 0.00 0.00 92 1008.9
20260830055425 71 73 6.1 7.8 0.00 0.00 0.00 92 1008.8
20260830054920 71 60 5.2 6.1 0.00 0.00 0.00 92 1008.8
20260830054416 71 65 4.3 6.1 0.00 0.00 0.00 92 1009.0